Le nostre stazioni meteo in Italia

Pubblicità
Il mio iltempo24.it
Cervia, Italia (16148): Temperatura & dewpoint: 10.02.2019 07:00:00 - 16.02.2019 07:00:00 (CET)Cervia, Italia (16148): velocità del vento: 10.02.2019 07:00:00 - 16.02.2019 07:00:00 (CET)Cervia, Italia (16148): direzione del vento: 10.02.2019 07:00:00 - 16.02.2019 07:00:00 (CET)Cervia, Italia (16148): reduced air pressure: 10.02.2019 07:00:00 - 16.02.2019 07:00:00 (CET)Cervia, Italia (16148): visibility: 10.02.2019 07:00:00 - 16.02.2019 07:00:00 (CET)Cervia, Italia (16148): ore di luce: 10.02.2019 07:00:00 - 16.02.2019 07:00:00 (CET)
Data & Tempo tt [°C] td [°C] ff [km/h] ff [kn] dd ppp [hPa] vv [km] sd [min]
16.02.2019 07:00:00 0,0 -1,0 8 4 NO 1031,4 10 0
16.02.2019 06:00:00 1,0 0,0 4 2 ONO - 8 -
16.02.2019 05:00:00 1,0 1,0 9 5 OSO - 6 -
16.02.2019 04:00:00 1,6 0,9 9 5 ONO 1031,5 6 -
16.02.2019 03:00:00 1,0 0,0 9 5 NO - 5 -
16.02.2019 02:00:00 0,0 0,0 5 3 NNO - 5 -
16.02.2019 01:00:00 1,0 0,3 5 3 O 1032,4 5 -
16.02.2019 00:00:00 1,0 0,0 8 4 NO - 5 -
15.02.2019 23:00:00 1,0 1,0 4 2 OSO - 5 -
15.02.2019 22:00:00 2,0 2,0 8 4 O 1032,6 4,0 -
15.02.2019 21:00:00 3,0 3,0 2 1 N - 4,0 -
15.02.2019 20:00:00 4,0 3,0 2 1 ENE - 5 -
15.02.2019 19:00:00 5,1 3,8 2 1 SO 1031,1 5 -
15.02.2019 18:00:00 8,0 5,0 11 6 E - 5 -
15.02.2019 17:00:00 10,0 4,0 11 6 E - 8 -
15.02.2019 16:00:00 11,6 4,4 11 6 E 1031,1 8 60
15.02.2019 15:00:00 12,0 4,0 11 6 ENE - 10 -
15.02.2019 14:00:00 13,0 4,0 8 4 N - 10 -
15.02.2019 13:00:00 12,0 4,5 13 7 ONO 1031,3 20 60
15.02.2019 12:00:00 10,0 4,0 9 5 ONO - 10 -
15.02.2019 11:00:00 8,0 3,0 13 7 ONO - 10 -
15.02.2019 10:00:00 5,6 2,6 5 3 NO 1032,7 20 60
15.02.2019 09:00:00 3,0 3,0 5 3 NO - 10 -
15.02.2019 08:00:00 0,0 0,0 8 4 O - 10 -
15.02.2019 07:00:00 -0,2 -0,2 9 5 O 1032,6 11 0
15.02.2019 06:00:00 0,0 -1,0 11 6 ONO - 10 -
15.02.2019 05:00:00 0,0 0,0 8 4 O - 10 -
15.02.2019 04:00:00 0,4 0,0 9 5 O 1032,3 10 -
15.02.2019 03:00:00 1,0 1,0 5 3 ONO - 10 -
15.02.2019 02:00:00 1,0 0,0 5 3 O - 10 -
15.02.2019 01:00:00 1,0 0,4 4 2 O 1033,1 10 -
15.02.2019 00:00:00 2,0 0,0 9 5 O - 10 -
14.02.2019 23:00:00 2,0 1,0 8 4 O - 10 -
14.02.2019 22:00:00 3,0 1,2 8 4 O 1032,7 10 -
14.02.2019 21:00:00 4,0 2,0 11 6 SO - 10 -
14.02.2019 20:00:00 3,0 1,0 5 3 S - 10 -
14.02.2019 19:00:00 5,2 1,9 5 3 E 1033,1 10 -
14.02.2019 18:00:00 7,0 2,0 8 4 E - 10 -
14.02.2019 17:00:00 10,0 3,0 9 5 E - 10 -
14.02.2019 16:00:00 11,2 3,7 15 8 E 1033,3 20 60
14.02.2019 15:00:00 13,0 -1,0 5 3 N - 10 -
14.02.2019 14:00:00 12,0 0,0 9 5 NNO - 10 -
14.02.2019 13:00:00 11,0 -0,2 11 6 NO 1034,5 20 60
14.02.2019 12:00:00 10,0 1,0 21 11 O - 10 -
14.02.2019 11:00:00 8,0 1,0 13 7 ONO - 10 -
14.02.2019 10:00:00 6,0 1,0 8 4 O 1036,6 20 42
14.02.2019 09:00:00 4,0 1,0 8 4 OSO - 10 -
14.02.2019 08:00:00 0,0 -1,0 9 5 SO - 10 -
14.02.2019 07:00:00 -1,2 -1,9 9 5 OSO 1036,6 20 0
14.02.2019 06:00:00 -1,0 -2,0 9 5 O - 10 -
14.02.2019 05:00:00 -1,0 -2,0 8 4 O - 10 -
14.02.2019 04:00:00 0,0 -1,3 8 4 O 1036,8 16 -
14.02.2019 03:00:00 0,0 -1,0 8 4 O - 10 -
14.02.2019 02:00:00 0,0 -1,0 9 5 O - 10 -
14.02.2019 01:00:00 1,0 -0,8 8 4 O 1037,6 16 -
14.02.2019 00:00:00 0,0 -1,0 8 4 N - 10 -
13.02.2019 23:00:00 2,0 -1,0 5 3 NO - 10 -
13.02.2019 22:00:00 3,0 -1,2 13 7 OSO 1037,0 16 -
13.02.2019 21:00:00 3,0 -1,0 9 5 SO - 10 -
13.02.2019 20:00:00 4,0 -1,0 11 6 SE - 10 -
13.02.2019 19:00:00 6,0 1,0 11 6 ESE 1036,5 20 -
13.02.2019 18:00:00 8,0 -1,0 5 3 ESE - 10 -
13.02.2019 17:00:00 10,0 -2,0 9 5 E - 10 -
13.02.2019 16:00:00 11,0 -2,8 8 4 E 1035,5 20 60
13.02.2019 15:00:00 11,0 -3,0 11 6 E - 10 -
13.02.2019 14:00:00 11,0 -1,0 15 8 ESE - 10 -
13.02.2019 13:00:00 11,0 0,1 15 8 E 1036,0 20 60
13.02.2019 12:00:00 11,0 0,0 16 9 E - 10 -
13.02.2019 11:00:00 10,0 1,0 5 3 SE - 10 -
13.02.2019 10:00:00 5,0 0,9 4 2 NNO 1036,0 20 60
13.02.2019 09:00:00 2,0 0,0 2 1 O - 10 -
13.02.2019 08:00:00 -2,0 -2,0 2 1 OSO - 10 -
13.02.2019 07:00:00 -1,6 -2,0 4 2 OSO 1034,2 30 0
13.02.2019 06:00:00 -2,0 -2,0 5 3 OSO - 10 -
13.02.2019 05:00:00 -1,0 -1,0 5 3 ONO - 10 -
13.02.2019 04:00:00 -0,8 -1,2 4 2 E 1032,4 30 -
13.02.2019 03:00:00 -1,0 -2,0 2 1 E - 10 -
13.02.2019 02:00:00 0,0 -1,0 4 2 SSE - 10 -
13.02.2019 01:00:00 0,4 -1,5 4 2 SE 1031,7 30 -
13.02.2019 00:00:00 0,0 -2,0 8 4 S - 10 -
12.02.2019 23:00:00 1,0 -1,0 8 4 ESE - 10 -
12.02.2019 22:00:00 2,2 -0,5 8 4 SO 1028,9 30 -
12.02.2019 21:00:00 5,0 0,0 8 4 ESE - 10 -
12.02.2019 20:00:00 6,0 1,0 9 5 ESE - 10 -
12.02.2019 19:00:00 6,2 0,5 9 5 ESE 1026,2 10 -
12.02.2019 18:00:00 8,0 0,0 13 7 ESE - 10 -
12.02.2019 17:00:00 11,0 -3,0 11 6 ESE - 10 -
12.02.2019 16:00:00 12,6 -2,1 11 6 E 1023,9 20 60
12.02.2019 15:00:00 14,0 -8,0 15 8 NNO - 10 -
12.02.2019 14:00:00 14,0 -7,0 13 7 ONO - 10 -
12.02.2019 13:00:00 13,2 -6,9 15 8 NO 1023,7 20 60
12.02.2019 12:00:00 13,0 -5,0 18 10 NO - 10 -
12.02.2019 11:00:00 11,0 -4,0 22 12 ONO - 10 -
12.02.2019 10:00:00 8,8 -2,8 18 10 O 1024,1 20 60
12.02.2019 09:00:00 5,0 -4,0 8 4 ONO - 10 -
12.02.2019 08:00:00 2,0 -4,0 5 3 O - 10 -
12.02.2019 07:00:00 3,0 -4,0 9 5 O 1022,2 20 0
12.02.2019 06:00:00 3,0 -5,0 13 7 O - 10 -
12.02.2019 05:00:00 4,0 -4,0 11 6 O - 10 -
12.02.2019 04:00:00 5,0 -4,5 13 7 O 1020,4 20 -
12.02.2019 03:00:00 7,0 -4,0 11 6 ONO - 10 -
12.02.2019 02:00:00 7,0 -4,0 13 7 ONO - 10 -
12.02.2019 01:00:00 7,4 -4,1 18 10 ONO 1019,1 20 -
12.02.2019 00:00:00 8,0 -4,0 16 9 ONO - 10 -
11.02.2019 23:00:00 8,0 -3,0 9 5 ONO - 10 -
11.02.2019 22:00:00 7,8 0,1 15 8 ONO 1017,5 20 -
11.02.2019 21:00:00 8,0 0,0 13 7 ONO - 10 -
11.02.2019 20:00:00 9,0 1,0 13 7 ONO - 10 -
11.02.2019 19:00:00 9,0 1,4 15 8 ONO 1014,7 10 -
11.02.2019 18:00:00 9,0 3,0 11 6 O - 10 -
11.02.2019 17:00:00 10,0 3,0 8 4 NO - 10 -
11.02.2019 16:00:00 11,1 4,6 9 5 NNO 1012,1 12 18
11.02.2019 15:00:00 11,0 4,0 15 8 NNO - 10 -
11.02.2019 14:00:00 11,0 4,0 21 11 NO - 10 -
11.02.2019 13:00:00 9,0 3,2 21 11 NO 1010,7 15 12
11.02.2019 12:00:00 9,0 3,0 26 14 NO - 10 -
11.02.2019 11:00:00 9,0 4,0 31 17 NO - 10 -
11.02.2019 10:00:00 6,4 4,2 22 12 NO 1008,7 8 6
11.02.2019 09:00:00 6,0 5,0 26 14 O - 4,5 -
11.02.2019 08:00:00 5,0 4,0 16 9 O - 0,3 -
11.02.2019 07:00:00 5,0 4,0 21 11 O 1006,5 2,0 0
11.02.2019 06:00:00 6,0 5,0 18 10 O - 3,0 -
11.02.2019 05:00:00 8,0 7,0 5 3 O - 3,5 -
11.02.2019 04:00:00 7,4 6,7 8 4 OSO 1005,8 4,0 -
11.02.2019 03:00:00 8,0 6,0 21 11 NO - 5 -
11.02.2019 02:00:00 10,0 6,0 34 18 ONO - 7 -
11.02.2019 01:00:00 12,0 5,6 9 5 SSO 1005,1 20 -
11.02.2019 00:00:00 12,0 6,0 11 6 S - 10 -
10.02.2019 23:00:00 12,0 6,0 9 5 S - 10 -
10.02.2019 22:00:00 12,0 5,2 8 4 S 1007,9 20 -
10.02.2019 21:00:00 12,0 5,0 13 7 S - 10 -
10.02.2019 20:00:00 13,0 6,0 22 12 SSO - 10 -
10.02.2019 19:00:00 13,7 6,1 13 7 S 1010,3 20 -
10.02.2019 18:00:00 14,0 6,0 24 13 S - 10 -
10.02.2019 17:00:00 13,0 7,0 9 5 SE - 10 -
10.02.2019 16:00:00 14,6 6,9 9 5 SSO 1012,9 10 0
10.02.2019 15:00:00 15,0 7,0 11 6 SSO - 10 -
10.02.2019 14:00:00 16,0 7,0 15 8 SSO - 10 -
10.02.2019 13:00:00 16,1 9,3 21 11 SSO 1015,9 20 30
10.02.2019 12:00:00 16,0 10,0 16 9 S - 10 -
10.02.2019 11:00:00 15,0 7,0 18 10 S - 10 -
10.02.2019 10:00:00 10,2 6,7 4 2 SO 1018,1 20 18
10.02.2019 09:00:00 9,0 6,0 5 3 E - 10 -
10.02.2019 08:00:00 5,0 5,0 8 4 ESE - 10 -
10.02.2019 07:00:00 4,4 4,3 5 3 S 1019,0 10 0

tt = Temperatura
td = dewpoint
ff = velocità del vento
dd = direzione del vento
ppp = reduced air pressure
vv = visibility
sd = ore di luce

Stazioni seguenti

WeatherPro
AMSI
MeteoEarth